Vorticity
nan nan nan nan nan nan nan nan nan nan nan nan nan nan nan nan nan nan nan nan nan nan nan nan nan nan nan nan nan nan nan nan nan nan nan nan nan nan nan nan nan nan nan nan nan nan nan nan nan nan nan nan nan nan
nan 10 9 9 10 11 12 13 13 12 12 13 13 13 14 15 17 14 11 12 10 9 10 12 11 12 13 7 10 11 11 9 9 9 11 12 10 9 11 7 7 15 13 8 12 13 3 8 9 2 11 8 3 nan
nan 9 10 11 12 12 12 12 12 12 12 12 13 15 16 17 19 14 9 10 9 10 12 10 14 16 18 20 9 8 9 12 13 10 10 9 8 12 13 8 9 5 11 11 9 9 3 15 6 5 3 6 7 nan
nan 10 11 10 12 12 12 12 12 12 12 13 14 16 16 17 18 13 10 8 9 11 11 10 9 8 12 18 15 14 12 10 10 9 12 12 8 9 11 10 8 6 8 13 14 -3 9 10 -9 -6 5 5 4 nan
nan 10 11 12 11 11 12 13 13 13 13 15 14 15 19 17 14 8 11 10 9 11 10 8 11 13 11 9 10 15 15 13 12 11 10 12 11 9 12 11 3 6 11 11 8 8 12 2 -2 -0 5 7 9 nan
nan 11 11 11 11 12 14 13 13 13 13 14 16 21 19 15 9 6 9 12 12 10 9 11 13 11 12 9 6 10 12 11 11 10 11 9 10 13 14 9 0 6 11 17 14 17 20 16 14 15 13 9 11 nan
nan 11 11 11 12 14 14 14 13 14 14 14 16 17 17 14 10 13 11 14 10 8 9 9 11 11 10 8 8 9 11 11 11 11 9 10 10 13 12 4 1 11 17 14 16 26 25 17 14 13 12 13 15 nan
nan 11 11 11 11 12 13 15 14 13 15 15 12 7 13 12 8 10 14 14 10 9 9 11 11 9 12 11 11 10 11 10 11 12 10 11 11 12 6 3 6 10 15 9 14 22 25 21 10 9 15 18 11 nan
nan 11 12 11 10 12 14 14 14 15 14 11 10 9 9 8 14 18 13 5 8 10 9 10 13 10 12 12 10 10 10 11 11 11 11 12 10 10 9 2 4 7 6 10 12 13 16 20 21 23 24 22 13 nan
nan 11 11 11 11 13 13 13 16 20 14 8 10 12 11 16 15 7 7 10 10 9 11 12 11 12 11 10 10 11 9 8 11 13 12 8 10 6 10 12 10 7 2 3 6 11 14 15 20 25 28 23 17 nan
nan 12 11 11 11 13 14 14 18 14 8 10 10 11 16 11 3 7 10 11 10 11 13 13 8 9 11 13 13 10 9 11 11 11 10 9 6 7 9 15 15 9 6 7 6 6 9 14 18 20 21 21 20 nan
nan 12 12 11 12 14 15 16 12 4 10 9 11 11 13 9 11 13 10 10 13 12 11 13 11 11 10 11 11 12 12 11 13 12 7 11 8 8 9 11 16 15 7 8 8 8 7 10 13 15 14 13 16 nan
nan 12 12 12 13 14 16 19 13 0 9 18 12 11 11 8 10 12 10 11 11 14 10 9 15 13 10 13 12 11 10 14 11 9 10 10 11 8 10 11 14 15 12 6 8 9 9 8 10 12 12 12 12 nan
nan 13 14 16 19 17 13 16 19 15 11 12 8 11 10 7 14 14 13 12 9 7 12 16 14 13 11 10 10 12 11 12 11 9 13 10 9 10 10 12 11 12 16 11 6 7 8 8 8 8 10 10 11 nan
nan 13 24 23 15 12 16 28 17 6 9 10 10 11 12 15 9 10 8 11 16 11 13 14 14 11 11 14 13 9 12 12 11 11 10 10 10 10 10 10 10 12 17 17 10 6 7 6 6 6 7 8 7 nan
nan 29 23 9 10 19 26 17 10 8 10 12 8 10 11 12 10 12 13 11 12 14 13 13 12 8 13 12 10 13 12 11 10 11 12 11 11 9 8 9 11 13 13 18 18 9 9 8 8 8 6 5 6 nan
nan 28 -1 -5 11 34 26 4 9 11 9 11 14 11 13 10 12 9 10 10 12 13 14 11 14 13 11 11 10 11 12 11 10 11 15 14 10 8 8 8 10 13 13 16 22 17 10 12 8 7 14 13 9 nan
nan -5 -8 5 20 28 15 10 10 12 11 13 12 11 13 11 9 12 12 12 12 10 16 15 9 10 14 11 12 12 11 12 11 9 12 12 12 14 14 10 11 14 13 13 14 17 16 15 11 11 12 14 17 nan
nan -2 4 14 19 15 12 13 15 11 13 12 9 13 13 11 12 12 11 12 13 12 10 12 13 12 12 11 12 11 11 12 12 12 11 11 11 13 15 13 13 15 12 11 11 12 10 14 17 12 10 14 13 nan
nan 27 27 25 13 4 10 14 12 11 12 12 9 15 12 12 13 12 10 11 11 9 11 15 13 12 12 12 13 13 10 9 8 10 11 13 9 12 18 17 14 13 9 8 9 10 11 11 13 13 12 13 11 nan
nan 26 24 17 10 10 10 10 13 12 12 12 13 13 9 12 14 12 11 10 12 12 12 13 12 13 11 12 11 11 11 10 12 12 8 10 13 11 12 16 16 13 15 12 7 7 12 13 12 12 12 12 13 nan
nan 11 16 10 10 14 10 16 13 8 13 9 14 14 12 13 12 11 10 13 13 12 13 12 11 12 12 12 14 11 10 8 9 12 16 14 12 12 15 18 14 11 13 14 12 10 10 12 13 11 12 17 14 nan
nan 17 10 12 11 11 13 11 13 14 11 10 12 11 13 16 9 11 18 12 11 13 13 13 13 13 12 12 14 16 12 9 13 14 14 14 11 12 15 15 11 10 10 13 19 16 12 10 10 12 13 17 13 nan
nan 10 15 14 13 7 13 14 11 7 10 16 13 10 14 12 12 12 12 10 11 16 14 14 13 11 14 16 15 15 14 12 10 10 11 12 11 13 13 11 12 11 11 13 13 14 14 14 9 11 13 14 14 nan
nan 14 15 11 12 15 13 10 14 16 14 9 12 17 11 11 11 10 15 15 13 12 10 9 13 14 14 11 12 13 11 11 12 8 10 14 11 9 10 12 12 11 11 13 13 13 15 15 12 12 14 14 13 nan
nan 17 9 10 15 13 13 10 10 11 11 15 15 14 12 11 12 14 9 10 13 13 14 12 10 9 13 16 12 12 13 10 10 10 14 13 11 12 12 9 8 9 15 15 12 11 14 16 13 11 12 13 14 nan
nan 15 13 12 11 10 14 14 11 13 12 11 13 12 12 12 11 12 13 14 14 12 12 12 12 12 12 11 12 15 15 13 13 12 13 12 12 15 14 11 11 13 12 12 12 11 13 17 15 10 10 10 11 nan
nan 14 16 12 13 10 10 13 12 10 11 15 19 17 10 6 12 13 10 10 14 16 13 12 12 12 15 15 11 12 18 15 14 14 13 13 15 13 13 14 13 11 10 11 12 11 12 12 12 14 13 12 11 nan
nan 13 12 14 14 13 11 11 11 12 14 14 15 17 10 6 12 13 13 15 16 15 17 16 13 12 13 15 13 14 18 19 15 14 13 11 8 10 16 14 12 9 9 8 11 12 11 11 11 13 15 12 11 nan
nan 14 8 13 15 15 18 15 12 12 14 14 10 12 14 14 14 10 11 14 17 16 16 16 17 15 14 12 9 10 12 12 16 16 11 11 11 12 13 15 17 15 13 12 9 9 12 10 11 16 13 11 13 nan
nan 10 11 13 11 16 17 10 10 14 12 13 15 15 13 10 13 13 12 17 16 13 10 10 13 14 15 14 13 8 9 11 12 13 15 12 12 14 12 14 17 15 14 13 12 15 14 13 11 12 13 11 10 nan
nan 14 10 10 10 18 16 9 7 12 11 8 12 12 11 14 14 11 14 14 12 13 13 11 11 14 14 12 14 14 13 12 11 11 14 16 15 13 12 13 16 16 14 14 13 8 12 17 14 11 9 11 16 nan
nan nan nan nan nan nan nan nan nan nan nan nan nan nan nan nan nan nan nan nan nan nan nan nan nan nan nan nan nan nan nan nan nan nan nan nan nan nan nan nan nan nan nan nan nan nan nan nan nan nan nan nan nan nan
CAPE
1 3 1 0 0 5 13 18 13 13 15 15 16 19 27 30 31 28 5 0 0 0 0 0 2 14 9 10 9 10 0 0 0 0 12 19 12 15 4 9 4 3 4 6 0 0 3 0 0 0 0 0 0 0
0 0 0 0 2 11 14 11 10 12 11 12 11 18 23 24 27 23 5 0 1 0 0 0 0 0 2 0 6 27 8 11 1 0 0 0 7 15 0 20 14 7 7 8 7 3 3 0 26 0 0 0 0 0
0 0 0 0 8 12 8 10 8 8 9 10 17 22 21 19 20 15 2 1 0 0 0 0 5 3 0 0 0 14 17 21 12 0 0 0 7 0 0 0 0 0 0 0 0 0 0 0 0 0 0 0 0 0
0 0 0 2 6 7 7 7 6 7 10 16 19 18 13 7 1 2 0 0 0 0 0 0 0 2 6 1 0 3 12 2 4 0 0 0 8 0 0 0 0 4 0 5 0 0 0 0 0 0 0 0 0 0
0 0 0 3 6 6 4 4 5 8 14 14 7 10 3 0 0 0 0 0 0 0 0 0 0 0 0 0 0 0 0 0 5 5 4 9 7 2 0 0 2 6 15 13 1 0 0 0 0 0 0 0 0 0
0 0 0 3 5 2 4 4 5 7 9 6 1 0 0 0 0 0 0 0 0 0 0 0 0 0 0 0 0 0 0 1 3 5 5 7 0 11 0 0 0 16 11 4 6 4 0 0 0 0 0 0 0 0
0 0 0 4 1 1 3 5 5 4 3 0 0 0 0 0 0 0 0 0 0 0 0 0 0 0 0 0 0 0 0 0 2 3 2 8 3 12 2 0 1 11 6 5 1 0 0 0 0 0 0 0 0 0
0 0 0 3 3 2 1 2 3 1 0 0 0 0 0 0 0 0 0 0 0 0 0 0 0 0 0 0 0 0 0 0 2 3 3 3 4 2 0 0 8 6 7 5 2 0 0 0 0 0 0 0 0 0
0 0 1 1 3 1 0 2 2 0 0 0 0 0 0 0 0 0 0 0 0 0 0 0 0 0 0 0 0 0 0 1 2 1 1 0 0 6 19 37 17 29 6 6 2 4 2 0 0 0 0 0 0 0
0 0 0 0 1 2 1 0 0 0 0 0 0 0 0 0 0 0 0 0 0 0 0 0 0 0 0 0 0 0 0 0 0 2 2 0 9 22 36 23 7 10 6 1 7 6 10 8 5 13 5 0 0 0
0 0 0 0 0 1 0 0 0 0 0 0 0 0 0 0 0 0 0 0 0 0 0 0 0 0 0 0 0 0 1 0 0 0 0 4 2 11 3 17 23 7 0 1 1 6 2 6 10 11 8 7 3 0
0 0 0 0 0 0 0 0 0 0 0 0 0 0 0 0 0 1 0 2 29 24 18 1 1 0 0 0 0 0 6 0 2 0 0 0 1 3 0 6 5 32 0 0 2 3 6 2 4 10 10 11 8 5
0 0 0 0 0 0 0 0 0 0 0 0 0 0 56 0 21 8 6 0 4 8 36 17 27 18 0 0 0 0 3 2 0 0 0 15 15 0 1 6 5 2 16 0 0 0 4 2 0 4 8 13 7 7
0 0 0 0 0 0 0 0 0 0 0 0 112 0 1 0 0 0 0 0 0 0 0 1 73 49 2 17 0 6 0 0 0 1 0 30 21 0 0 0 7 0 5 18 0 0 0 0 0 1 4 4 7 6
0 0 0 1 0 0 0 0 0 0 0 122 0 0 0 0 0 0 0 0 0 0 0 2 79 0 0 0 0 0 0 0 0 32 15 15 2 0 0 0 0 0 0 26 23 1 0 0 0 1 0 0 0 0
0 0 0 0 0 0 0 0 0 0 19 63 0 0 0 0 0 0 0 0 0 0 0 0 0 0 0 0 0 0 0 0 2 16 6 0 0 0 0 0 0 0 0 0 14 10 11 3 0 0 0 0 0 0
0 0 0 0 0 0 0 0 59 254 0 7 12 0 0 0 0 0 0 0 0 0 0 0 0 0 0 0 0 0 0 0 0 0 0 2 6 3 0 0 0 0 1 0 0 1 1 7 7 4 1 1 0 0
0 0 0 0 0 0 22 0 94 0 16 0 4 4 0 0 0 0 0 0 0 0 0 0 0 0 0 0 0 0 0 0 0 0 0 12 5 9 14 13 0 0 0 0 0 0 0 0 6 0 0 0 0 5
0 0 0 1 0 0 99 206 0 124 57 4 0 0 0 0 0 0 0 0 0 0 0 0 0 0 0 0 0 0 0 0 0 0 0 0 0 0 6 1 0 0 0 0 0 0 0 0 0 0 0 0 0 0
0 0 0 0 0 12 695 295 1 94 131 0 1 20 0 0 0 0 0 0 0 0 0 0 0 0 0 0 0 0 0 0 0 0 0 0 0 0 0 0 0 0 0 0 0 0 0 0 0 0 0 0 0 0
0 0 0 0 0 0 288 9 1 146 0 0 19 18 10 0 40 0 0 0 0 0 0 0 0 0 0 0 0 0 0 0 0 0 0 0 0 0 0 0 0 0 0 0 0 0 0 0 0 0 0 0 0 0
0 0 0 2 202 590 210 11 0 0 65 17 60 18 30 67 34 0 0 0 0 0 0 0 0 0 0 0 0 0 0 0 0 0 0 0 0 0 0 0 0 0 0 0 0 0 0 0 0 0 0 0 0 0
0 0 150 389 490 0 0 0 98 139 172 1 46 59 4 63 2 0 2 0 0 0 0 0 0 0 0 0 5 0 0 0 0 0 0 0 0 0 0 0 0 0 0 0 0 0 0 0 0 0 0 0 0 0
0 91 440 385 19 0 0 277 345 388 64 138 59 75 14 1 0 9 16 0 0 0 0 0 0 0 0 1 0 0 0 0 0 0 0 0 0 0 0 0 0 0 0 0 0 0 0 0 0 0 0 0 0 0
84 5 0 1 0 1 8 13 0 0 0 0 0 30 14 0 0 0 0 0 0 1 1 0 0 0 0 0 0 0 0 0 0 0 0 0 0 0 0 0 0 0 0 0 0 0 0 0 0 0 0 0 0 0
377 3 0 3 70 84 5 32 27 1 1 0 0 24 2 2 18 2 0 0 0 0 0 0 0 0 0 0 0 0 0 0 0 0 0 0 0 0 0 0 0 0 0 0 0 0 0 0 0 0 0 0 0 0
64 0 1 0 36 20 17 8 0 0 0 0 20 67 50 0 0 0 0 0 0 2 0 0 0 0 0 0 0 0 0 0 0 0 0 0 0 0 0 0 0 0 0 0 0 0 0 0 0 0 0 0 0 0
403 318 244 217 80 39 15 0 0 0 6 36 46 7 1 0 0 0 0 3 0 0 0 0 0 0 0 0 0 0 0 0 0 0 0 0 0 0 0 0 0 0 0 0 0 0 0 0 0 0 0 0 0 0
254 102 142 81 85 1 4 0 58 29 4 25 15 6 0 0 0 0 5 25 16 0 0 0 0 0 0 0 0 0 0 0 0 0 0 0 0 0 0 0 0 0 0 0 0 0 0 0 0 0 0 0 0 0
166 164 270 308 316 344 154 14 162 88 9 1 0 12 0 17 19 2 2 0 0 0 0 0 0 0 0 0 0 0 0 0 0 0 0 0 0 0 0 0 0 0 0 0 0 0 0 0 0 0 0 0 0 0
137 261 47 32 97 134 96 7 0 0 0 0 9 1 32 0 0 0 0 0 0 0 0 0 0 0 0 0 0 0 0 0 0 0 0 0 0 0 0 0 0 0 0 0 0 0 0 0 0 0 0 0 0 0
368 234 53 47 43 100 35 0 0 0 0 0 0 114 15 10 58 0 0 0 0 0 0 0 0 0 0 0 0 0 0 0 0 0 0 0 0 0 0 0 0 0 0 1 0 0 0 0 0 0 0 0 0 0
298 277 185 191 215 50 66 26 82 0 0 3 5 39 115 9 0 0 0 0 0 0 0 0 0 0 0 0 0 0 0 0 0 0 0 0 0 0 0 0 0 0 0 0 0 0 0 0 0 0 2 1 0 0